Jordan, MT

6:47 AM MDT on April 23, 2018 (GMT -0600)
Jordan

Weather History for KJDN - November, 2011

Change the Weather History Date:

Sunday, November 6, 2011

  Actual Average Record
Temperature  
Mean Temperature 24 °F 35 °F  
Max Temperature 34 °F 49 °F 75 °F (2010)
Min Temperature 13 °F 21 °F -7 °F (2017)
Degree Days  
Heating Degree Days 41 30  
Month to date heating degree days 197 174  
Since 1 July heating degree days 875 1147  
Cooling Degree Days 0 0  
Month to date cooling degree days 0 0  
Year to date cooling degree days 494 421  
Moisture  
Dew Point 19 °F    
Average Humidity 71    
Maximum Humidity 91    
Minimum Humidity 51    
Precipitation  
Precipitation 0.00 in 0.01 in 0.50 in (1945)
Month to date precipitation 0.12 0.11  
Year to date precipitation 16.05 12.13  
Snow  
Snow 0.00 in - - ()
Month to date snowfall 0.0  
Since 1 July snowfall 0.0  
Since 1 September snowfall 0.0  
Snow Depth 0.00 in    
Sea Level Pressure  
Sea Level Pressure 29.85 in    
Wind  
Wind Speed 13 mph (WNW)    
Max Wind Speed 23 mph    
Max Gust Speed 29 mph    
T = Trace of Precipitation, MM = Missing Value Source: NWS Daily Summary

Daily Weather History Graph

Daily Weather History Graph

Search for Another Location

Airport or City:

Astronomy

Nov. 06, 2011 Rise Set
Actual Time 6:58 AM MST 4:43 PM MST
Civil Twilight 6:25 AM MST 5:16 PM MST
Nautical Twilight 5:49 AM MST 5:52 PM MST
Astronomical Twilight 5:13 AM MST 6:28 PM MST
Moon 2:40 PM MST (11/6) 2:54 AM MST (11/6)
Length of Visible Light 10h 50m
Length of Day
9h 45m
Waxing Gibbous, 86% of the Moon is Illuminated
Nov 6
Waxing Gibbous
Nov 10
Full
Nov 18
Last Quarter
Nov 24
New
Dec 2
First Quarter

Hourly Weather History & Observations

Time (MST) Temp. Windchill Dew Point Humidity Pressure Visibility Wind Dir Wind Speed Gust Speed Precip Events Conditions
12:48 AM 28.0 °F 14.6 °F 23.0 °F 81% 29.70 in - WNW 20.7 mph 26.5 mph N/A   Unknown
1:48 AM 28.0 °F 16.1 °F 23.0 °F 81% 29.71 in - WNW 16.1 mph 26.5 mph N/A   Unknown
1:48 AM 28.0 °F 17.5 °F 23.0 °F 81% 29.71 in - WNW 12.7 mph - N/A   Unknown
2:48 AM 28.9 °F 16.5 °F 21.9 °F 75% 29.72 in - WNW 18.4 mph 25.3 mph N/A   Unknown
3:48 AM 27.0 °F 16.7 °F 23.0 °F 85% 29.73 in - West 11.5 mph - N/A   Unknown
4:48 AM 26.1 °F 15.6 °F 21.9 °F 84% 29.75 in - West 11.5 mph - N/A   Unknown
5:48 AM 25.0 °F 13.1 °F 21.0 °F 85% 29.76 in - West 13.8 mph - N/A   Unknown
6:48 AM 24.1 °F 11.5 °F 19.9 °F 84% 29.76 in - West 15.0 mph - N/A   Unknown
7:48 AM 23.0 °F 11.1 °F 19.0 °F 85% 29.78 in - West 12.7 mph - N/A   Unknown
8:48 AM 24.1 °F 12.0 °F 18.0 °F 77% 29.79 in - West 13.8 mph - N/A   Unknown
9:48 AM 28.0 °F 15.3 °F 19.9 °F 72% 29.79 in - West 18.4 mph - N/A   Unknown
10:48 AM 30.0 °F 17.9 °F 19.9 °F 66% 29.80 in - West 18.4 mph 27.6 mph N/A   Unknown
11:48 AM 30.9 °F 19.1 °F 19.9 °F 64% 29.80 in - West 18.4 mph 26.5 mph N/A   Unknown
12:48 PM 32.0 °F 19.5 °F 19.0 °F 59% 29.82 in - WNW 21.9 mph 27.6 mph N/A   Unknown
1:48 PM 34.0 °F 23.8 °F 19.0 °F 54% 29.84 in - West 16.1 mph 25.3 mph N/A   Unknown
2:48 PM 34.0 °F 23.0 °F 18.0 °F 52% 29.86 in - WNW 18.4 mph - N/A   Unknown
3:48 PM 34.0 °F 23.4 °F 19.9 °F 56% 29.90 in - WNW 17.3 mph 24.2 mph N/A   Unknown
4:48 PM 32.0 °F 24.8 °F 19.9 °F 61% 29.92 in - West 8.1 mph - N/A   Unknown
5:48 PM 25.0 °F - 19.0 °F 78% 29.97 in - Calm Calm - N/A   Unknown
6:48 PM 21.9 °F 15.7 °F 17.1 °F 82% 29.99 in - WNW 4.6 mph - N/A   Unknown
7:48 PM 19.9 °F 11.1 °F 17.1 °F 89% 30.02 in - West 6.9 mph - N/A   Unknown
8:48 PM 19.0 °F 10.0 °F 15.1 °F 85% 30.05 in - WNW 6.9 mph - N/A   Unknown
9:48 PM 19.0 °F 10.0 °F 15.1 °F 85% 30.06 in - WNW 6.9 mph - N/A   Unknown
10:48 PM 19.9 °F 11.1 °F 15.1 °F 81% 30.07 in - WNW 6.9 mph - N/A   Unknown